This demonstration page uses our WeatherBlox Daily Observations layout. Learn more.

Hourly Observations for March 7, 2015

Temp ( °F °C ) Dew Point ( °F °C ) Humidity (%) Winds ( mph kmh ) Pressure ( in mb ) Visibility ( mi km ) Precip ( " mm )
12:15 am 00:15 Clear 35 1.8 13 -10.5 40 40 WNW 7 11 30.24 1024 10 16.0934 0 0
12:35 am 00:35 Clear 34 0.9 14 -9.9 45 45 W 8 13 30.27 1025 10 16.0934 0 0
12:55 am 00:55 Clear 36 2.4 14 -10 40 40 W 7 11 30.24 1024 10 16.0934 0 0
1:15 am 01:15 Clear 35 1.9 14 -9.8 42 42 W 9 15 30.24 1024 10 16.0934 0 0
1:35 am 01:35 Clear 33 0.3 14 -9.9 47 47 WNW 6 9 30.27 1025 10 16.0934 0 0
1:55 am 01:55 Clear 29 -1.4 14 -10.1 52 52 WNW 6 9 30.3 1026 10 16.0934 0 0
2:15 am 02:15 Clear 33 0.8 16 -9.1 48 48 WNW 6 9 30.3 1026 10 16.0934 0 0
2:35 am 02:35 Clear 33 0.8 15 -9.5 46 46 W 8 13 30.3 1026 10 16.0934 0 0
2:55 am 02:55 Clear 33 0.8 15 -9.3 47 47 WNW 7 11 30.3 1026 10 16.0934 0 0
3:15 am 03:15 Clear 32 0.2 16 -9.1 50 50 W 9 15 30.3 1026 10 16.0934 0 0
3:35 am 03:35 Clear 31 -0.5 15 -9.4 51 51 W 8 13 30.3 1026 10 16.0934 0 0
3:55 am 03:55 Clear 32 0.1 16 -9.1 50 50 WNW 6 9 30.3 1026 10 16.0934 0 0
4:15 am 04:15 Clear 32 0.1 16 -9.1 50 50 W 9 15 30.3 1026 10 16.0934 0 0
4:35 am 04:35 Clear 31 -0.5 15 -9.2 52 52 WNW 8 13 30.3 1026 10 16.0934 0 0
4:55 am 04:55 Clear 31 -0.5 16 -9.1 53 53 WNW 8 13 30.3 1026 10 16.0934 0 0
5:15 am 05:15 Clear 31 -0.5 17 -8.6 55 55 WNW 6 9 30.3 1026 10 16.0934 0 0
5:35 am 05:35 Clear 31 -0.4 18 -7.8 58 58 W 8 13 30.3 1026 10 16.0934 0 0
5:55 am 05:55 Clear 31 -0.3 18 -7.6 58 58 W 9 15 30.3 1026 10 16.0934 0 0
6:15 am 06:15 Clear 30 -1.2 18 -7.6 62 62 W 8 13 30.3 1026 10 16.0934 0 0
6:35 am 06:35 Clear 30 -1.3 18 -7.7 62 62 W 8 13 30.3 1026 10 16.0934 0 0
6:55 am 06:55 Clear 29 -1.9 18 -8 63 63 W 8 13 30.33 1027 10 16.0934 0 0
7:15 am 07:15 Sunny 29 -1.7 18 -7.8 63 63 W 8 13 30.36 1028 10 16.0934 0 0
7:35 am 07:35 Sunny 29 -1.9 18 -7.6 65 65 W 8 13 30.36 1028 10 16.0934 0 0
7:55 am 07:55 Sunny 32 -0.2 20 -6.9 61 61 W 8 13 30.33 1027 10 16.0934 0 0
8:15 am 08:15 Sunny 34 1.1 21 -6.3 58 58 WNW 7 11 30.33 1027 10 16.0934 0 0
8:35 am 08:35 Sunny 37 2.9 23 -5.2 56 56 WNW 7 11 30.3 1026 10 16.0934 0 0
8:55 am 08:55 Sunny 42 5.7 24 -4.5 48 48 NW 12 19 30.27 1025 10 16.0934 0 0
9:15 am 09:15 Sunny 45 7.4 24 -4.5 43 43 NW 9 15 30.3 1026 10 16.0934 0 0
9:35 am 09:35 Sunny 47 8.4 24 -4.6 40 40 NW 9 15 30.3 1026 10 16.0934 0 0
9:55 am 09:55 Sunny 50 9.8 24 -4.6 36 36 NNW 8 13 30.27 1025 10 16.0934 0 0
10:15 am 10:15 Sunny 52 11.1 24 -4.5 33 33 NNW 10 17 30.27 1025 10 16.0934 0 0
10:35 am 10:35 Sunny 53 11.8 24 -4.5 32 32 NNW 9 15 30.24 1024 10 16.0934 0 0
10:55 am 10:55 Sunny 55 12.6 24 -4.5 30 30 NNW 10 17 30.24 1024 10 16.0934 0 0
11:15 am 11:15 Sunny 57 13.7 24 -4.6 28 28 NNW 7 11 30.24 1024 10 16.0934 0 0
11:35 am 11:35 Sunny 58 14.5 23 -4.8 26 26 NNW 6 9 30.21 1023 10 16.0934 0 0
11:55 am 11:55 Sunny 59 15.1 23 -4.9 25 25 N 5 7 30.18 1022 10 16.0934 0 0
12:15 pm 12:15 Sunny 60 15.7 23 -4.9 24 24 NW 7 11 30.18 1022 10 16.0934 0 0
12:35 pm 12:35 Sunny 61 16 22 -5.4 23 23 NNW 6 9 30.18 1022 10 16.0934 0 0
12:55 pm 12:55 Sunny 61 16.3 22 -5.7 22 22 NNW 5 7 30.18 1022 10 16.0934 0 0
1:15 pm 13:15 Sunny 62 16.6 22 -5.8 21 21 Calm 30.15 1021 10 16.0934 0 0
1:35 pm 13:35 Sunny 62 16.6 21 -6.2 21 21 Calm 30.15 1021 10 16.0934 0 0
1:55 pm 13:55 Sunny 63 17.3 21 -6.3 19 19 W 9 15 30.12 1020 10 16.0934 0 0
2:15 pm 14:15 Sunny 63 17.3 20 -6.8 19 19 SW 6 9 30.12 1020 10 16.0934 0 0
2:35 pm 14:35 Sunny 64 17.6 19 -7 18 18 W 6 9 30.06 1018 10 16.0934 0 0
2:55 pm 14:55 Sunny 64 17.7 20 -6.7 18 18 WNW 7 11 30.06 1018 10 16.0934 0 0
3:15 pm 15:15 Sunny 64 17.7 19 -7 18 18 W 3 6 30.06 1018 10 16.0934 0 0
3:35 pm 15:35 Sunny 65 18.1 19 -7.3 17 17 W 8 13 30.06 1018 10 16.0934 0 0
3:55 pm 15:55 Sunny 65 18.1 18 -7.6 17 17 WNW 8 13 30.06 1018 10 16.0934 0 0
4:15 pm 16:15 Sunny 64 18 18 -7.6 17 17 W 9 15 30.06 1018 10 16.0934 0 0
4:35 pm 16:35 Sunny 64 18 18 -7.7 17 17 Calm 30.06 1018 10 16.0934 0 0
4:55 pm 16:55 Sunny 64 17.6 19 -7.3 18 18 SW 6 9 30.06 1018 10 16.0934 0 0
5:15 pm 17:15 Sunny 64 17.6 19 -7 18 18 SW 8 13 30.06 1018 10 16.0934 0 0
5:35 pm 17:35 Sunny 63 17.2 19 -7.1 18 18 SSW 8 13 30.09 1019 10 16.0934 0 0
5:55 pm 17:55 Sunny 61 16.2 19 -7 20 20 SSW 6 9 30.06 1018 10 16.0934 0 0
6:15 pm 18:15 Sunny 60 15.5 19 -7 21 21 SSW 3 6 30.06 1018 10 16.0934 0 0
6:35 pm 18:35 Sunny 57 13.8 19 -7 23 23 SSW 5 7 30.06 1018 10 16.0934 0 0
6:55 pm 18:55 Clear 54 12.3 19 -7 26 26 SSW 5 7 30.09 1019 10 16.0934 0 0
7:15 pm 19:15 Clear 51 10.7 19 -7.2 28 28 S 6 9 30.09 1019 10 16.0934 0 0
7:35 pm 19:35 Clear 49 9.5 19 -7.5 30 30 S 3 6 30.12 1020 10 16.0934 0 0
7:55 pm 19:55 Clear 45 7 17 -8.4 33 33 S 5 7 30.12 1020 10 16.0934 0 0
8:15 pm 20:15 Clear 43 6.3 17 -8.4 34 34 S 3 6 30.15 1021 10 16.0934 0 0
8:35 pm 20:35 Clear 41 5.2 17 -8.6 37 37 S 5 7 30.15 1021 10 16.0934 0 0
8:55 pm 20:55 Clear 42 5.4 17 -8.3 37 37 S 6 9 30.15 1021 10 16.0934 0 0
9:15 pm 21:15 Clear 41 5.2 17 -8.2 38 38 S 5 7 30.15 1021 10 16.0934 0 0
9:35 pm 21:35 Clear 42 5.5 17 -8.1 37 37 S 6 9 30.15 1021 10 16.0934 0 0
9:55 pm 21:55 Clear 42 5.6 17 -8.2 37 37 SSE 6 9 30.15 1021 10 16.0934 0 0
10:15 pm 22:15 Clear 40 4.5 17 -8.1 40 40 SSE 7 11 30.15 1021 10 16.0934 0 0
10:35 pm 22:35 Clear 39 3.8 19 -7.5 44 44 SE 10 17 30.15 1021 10 16.0934 0 0
10:55 pm 22:55 Clear 39 3.8 20 -6.7 47 47 SE 12 19 30.15 1021 10 16.0934 0 0
11:15 pm 23:15 Clear 40 4.7 22 -5.8 47 47 SE 12 19 30.15 1021 10 16.0934 0 0
11:35 pm 23:35 Clear 39 4 21 -6 48 48 SSE 10 17 30.15 1021 10 16.0934 0 0
11:55 pm 23:55 Clear 38 3.5 21 -6 50 50 SSE 12 19 30.12 1020 10 16.0934 0 0

Powered by AerisWeather